Weather in Glendale

United States     34°11′12″N   118°14′40″W
temp.,
°C
wind,
m/s
gust,
m/s
humid.,
%
clouds,
%
prec.,
mm/h
press.,
hPa
HPBL,
m
25 may, wed
wed2523:00+18ese11572 0.0 101189
02:00+18e11511 0.0 101052
05:00+18ne11440 0.0 101019
08:00+23ssw11390 0.0 1011172
11:00+27sw32323 0.0 1011692
14:00+29ssw42287 0.0 1011725
17:00+27ssw42345 0.0 1010559
20:00+19sse22626 0.0 1012166
26 may, thu
thu2623:00+17se116910 0.0 1013121
02:00+16se116672 0.0 101295
05:00+15ese12635 0.0 101380
08:00+19s225321 0.0 1014266
11:00+24ssw434049 0.0 1014634
14:00+26ssw44314 0.0 1013895
17:00+24ssw43330 0.0 1013698
20:00+17sse336198 0.0 1014212
27 may, fri
fri2723:00+15se2270100 0.0 1016175
02:00+14se1171100 0.0 1015134
05:00+14se116616 0.0 1015110
08:00+17ssw21586 0.0 1015317
11:00+22ssw32405 0.0 1015664
14:00+25ssw433190 0.0 1014892
17:00+22ssw4238100 0.0 1013683
20:00+16sse216398 0.0 1014191
28 may, sat
sat2823:00+15se1168100 0.0 1014151
02:00+13se117476 0.0 1012138
05:00+13ese117810 0.0 1012135
08:00+16ssw216612 0.0 1013332
11:00+20ssw425012 0.0 1012733
14:00+23ssw433968 0.0 10101036
17:00+22ssw42485 0.0 1008793
20:00+16s21695 0.0 1008247
29 may, sun
sun2923:00+15ne11705 0.0 1009171
02:00+14n126680 0.0 1008129
05:00+13n1272100 0.0 1008144
08:00+16w225458 0.0 1008576
11:00+22wsw44305 0.0 10071282
14:00+23sw56330 0.0 10061792
17:00+23sw34310 0.0 10041387
20:00+18n34230 0.0 1005481